[[{"header":{"parameterUnit":"m.s-1","parameterCategory":1,"la1":30.2991,"la2":30.254,"lo1":-89.0895,"lo2":-89.0444,"dy":0.0017,"dx":0.0017,"nx":28,"ny":28,"refTime":"2023-05-23T21:00:00:Z","depth":0,"parameterNumber":2,"parameterNumberName":"U-component_of_WINDS"},"data":[0,0,0,0,0,0,0,0,0,0,0,0,0,0,0,0,0,0,0,0,0,0,0,0,0,0,0,0,0,0,0,0,0,0,0,0,0,0,0,0,0,0,0,0,0,0,0,0,0,0,0,0,0,0,0,0,0,0,-3.3432,-3.3432,0,-3.3372,-3.3371,-3.337,-3.3292,-3.3291,-3.329,-3.3289,-3.3228,-3.3227,-3.3227,0,0,0,0,0,0,0,0,0,0,0,0,0,-3.3482,-3.3482,-3.3432,-3.3432,-3.3431,-3.3372,-3.3371,-3.337,-3.3293,-3.3291,-3.329,-3.3288,-3.3228,-3.3227,-3.3227,0,0,0,0,0,0,0,0,0,0,0,0,0,-3.3445,-3.3481,-3.3433,-3.3385,-3.338,-3.3372,-3.3371,-3.337,-3.3293,-3.3291,-3.3289,-3.3287,-3.3228,-3.3227,-3.3227,-3.326,0,0,-3.3224,-3.3224,0,0,0,0,0,0,0,0,-3.3447,-3.3443,-3.3393,-3.3388,-3.3383,-3.3338,-3.3366,-3.3333,-3.3293,-3.3326,-3.3289,-3.3286,-3.3266,-3.3262,-3.3255,-3.3258,-3.3255,-3.3224,-3.3224,-3.3224,-3.3224,0,0,0,0,0,0,0,-3.345,-3.3445,-3.3408,-3.3392,-3.3386,-3.3367,-3.336,-3.336,-3.3307,-3.3323,-3.3317,-3.3311,-3.3263,-3.3256,-3.3253,-3.3254,-3.3224,-3.3224,-3.3223,-3.3223,-3.3283,-3.3285,0,0,0,0,0,0,-3.3459,-3.3448,-3.341,-3.3407,-3.3411,-3.3368,-3.336,-3.3354,-3.3307,-3.3298,-3.3313,-3.3308,-3.3258,-3.3254,-3.325,-3.3288,-3.3224,-3.3223,-3.3223,-3.3281,-3.3284,-3.3286,0,0,0,0,0,0,-3.3461,-3.3457,-3.3413,-3.3426,-3.3419,-3.3369,-3.3364,-3.3354,-3.3347,-3.3299,-3.329,-3.3315,-3.3256,-3.3251,-3.3259,-3.3285,-3.3223,-3.3222,-3.3279,-3.3282,-3.3285,-3.3363,0,0,0,0,0,0,-3.3463,-3.3458,-3.347,-3.3427,-3.3418,-3.3422,-3.3365,-3.3354,-3.3346,-3.3338,-3.3299,-3.3291,-3.3254,-3.326,-3.3258,-3.3283,-3.3222,-3.3276,-3.328,-3.3284,-3.3358,-3.3369,-3.3377,0,0,0,0,0,-3.3465,-3.3494,-3.3471,-3.3467,-3.3432,-3.3424,-3.3419,-3.3376,-3.3348,-3.336,-3.333,-3.3292,-3.3282,-3.3262,-3.3259,-3.3283,-3.3275,-3.3279,-3.3284,-3.3354,-3.3366,-3.3377,0,0,0,0,0,0,-3.3542,-3.3488,-3.3461,-3.3477,-3.3456,-3.3411,-3.3424,-3.3391,-3.3377,-3.3371,-3.3318,-3.331,-3.3325,-3.3304,-3.3283,-3.3314,-3.3273,-3.3277,-3.3327,-3.3339,-3.3348,-3.3353,-3.3221,0,0,0,0,0,-3.3561,-3.3558,-3.3511,-3.353,-3.352,-3.3475,-3.3469,-3.3438,-3.3414,-3.3404,-3.3374,-3.3353,-3.3345,-3.334,-3.333,-3.3355,-3.3346,-3.337,-3.338,-3.3388,-3.3393,-3.3405,-3.3416,-3.3301,-3.3301,-3.33,0,0,-3.36,-3.357,-3.3571,-3.3545,-3.3524,-3.3523,-3.3467,-3.3468,-3.3467,-3.3404,-3.341,-3.3388,-3.336,-3.3376,-3.3382,-3.336,-3.3422,-3.3394,-3.3401,-3.3401,-3.3411,-3.3422,-3.3432,-3.3304,-3.3303,-3.3303,0,0,-3.367,-3.3647,-3.3661,-3.3642,-3.3612,-3.3581,-3.3585,-3.3545,-3.3527,-3.3532,-3.3485,-3.3484,-3.347,-3.3453,-3.3442,-3.3508,-3.3473,-3.3506,-3.3557,-3.357,-3.3579,-3.3587,-3.3612,-3.3621,-3.351,-3.3511,-3.3511,0,-3.3723,-3.3719,-3.3673,-3.3677,-3.3667,-3.361,-3.3624,-3.3608,-3.3576,-3.3571,-3.3547,-3.353,-3.3507,-3.3519,-3.3536,-3.3528,-3.3532,-3.3511,-3.3582,-3.3589,-3.3596,-3.3619,-3.3628,-3.3515,-3.3515,-3.3514,-3.3514,0,-3.3786,-3.3784,-3.3799,-3.377,-3.3762,-3.3771,-3.3727,-3.3724,-3.3694,-3.3666,-3.3673,-3.3643,-3.3627,-3.3627,-3.3598,-3.3636,-3.3623,-3.3591,-3.3548,-3.3612,-3.3633,-3.3641,-3.3521,-3.352,-3.3518,-3.3517,0,0,-3.3904,-3.3849,-3.3856,-3.3842,-3.3805,-3.3803,-3.381,-3.3794,-3.3794,-3.3774,-3.3779,-3.377,-3.374,-3.3729,-3.3697,-3.3708,-3.3764,-3.3674,-3.3673,-3.3693,-3.3806,-3.3831,-3.3842,-3.374,-3.3741,-3.3742,-3.3808,0,-3.3968,-3.3977,-3.3936,-3.3956,-3.3955,-3.3901,-3.3907,-3.3886,-3.386,-3.3856,-3.3827,-3.3822,-3.3783,-3.3775,-3.3784,-3.3755,-3.3786,-3.3749,-3.3746,-3.3746,-3.3755,-3.3852,-3.3879,-3.3942,-3.3816,-3.3817,-3.3818,0,-3.4045,-3.403,-3.405,-3.4013,-3.4011,-3.4017,-3.4,-3.3996,-3.3971,-3.3951,-3.3939,-3.3902,-3.3907,-3.3866,-3.3873,-3.385,-3.3846,-3.3831,-3.3833,-3.3832,-3.3787,-3.3855,-3.3961,-3.3972,-3.383,-3.3829,-3.3828,0,-3.4131,-3.4115,-3.4125,-3.4116,-3.4072,-3.4078,-3.4061,-3.4033,-3.4027,-3.4012,-3.4007,-3.3993,-3.3986,-3.3976,-3.3937,-3.391,-3.3949,-3.3904,-3.3935,-3.3936,-3.3946,-3.3946,-3.4055,-3.3942,-3.3941,-3.3941,-3.3941,0,-3.4208,-3.4223,-3.4163,-3.417,-3.4185,-3.4138,-3.4154,-3.4131,-3.4108,-3.411,-3.4062,-3.4065,-3.4012,-3.401,-3.3979,-3.3991,-3.3987,-3.3973,-3.3965,-3.3978,-3.398,-3.3975,-3.397,-3.3944,-3.3943,-3.3943,-3.3942,0,-3.4307,-3.4267,-3.4275,-3.4234,-3.4224,-3.4237,-3.4202,-3.4206,-3.4178,-3.4181,-3.4179,-3.4135,-3.4129,-3.4089,-3.4074,-3.4054,-3.4077,-3.406,-3.4086,-3.4081,-3.4114,-3.4112,-3.4224,-3.4237,-3.4115,-3.4116,-3.4117,0,-3.4359,-3.4369,-3.4329,-3.4327,-3.4311,-3.4308,-3.4301,-3.4255,-3.425,-3.4223,-3.4231,-3.4222,-3.4212,-3.4205,-3.4173,-3.4161,-3.4144,-3.4184,-3.4142,-3.4156,-3.4147,-3.4147,-3.4149,-3.4194,-3.4195,-3.4197,-3.4198,0,-3.4457,-3.4437,-3.4429,-3.4415,-3.4408,-3.4394,-3.4378,-3.4379,-3.4328,-3.4325,-3.4318,-3.4311,-3.4296,-3.4288,-3.4271,-3.4253,-3.4218,-3.4211,-3.4218,-3.4232,-3.4247,-3.4241,-3.4112,-3.4209,-3.4208,-3.4207,-3.4206,-3.4206,-3.4535,-3.4542,-3.4515,-3.4508,-3.4491,-3.4477,-3.4479,-3.4452,-3.4445,-3.443,-3.4403,-3.4401,-3.4376,-3.435,-3.4336,-3.4334,-3.4313,-3.4322,-3.4325,-3.4328,-3.4336,-3.4246,-3.4331,-3.433,-3.433,-3.433,-3.4329,0,-3.4631,-3.4612,-3.4605,-3.4584,-3.4579,-3.4545,-3.4525,-3.4523,-3.4522,-3.4502,-3.4494,-3.4487,-3.4479,-3.4446,-3.4435,-3.444,-3.4423,-3.4439,-3.4438,-3.4435,-3.4355,-3.4351,-3.4452,-3.4452,-3.4452,-3.4452,-3.4452,-3.4452,-3.4681,-3.4692,-3.4669,-3.4671,-3.4651,-3.4649,-3.464,-3.4628,-3.4612,-3.4607,-3.46,-3.4578,-3.4553,-3.454,-3.4531,-3.4522,-3.452,-3.4541,-3.4527,-3.4452,-3.4441,-3.4429,-3.4426,-3.4541,-3.4541,-3.4608,-3.4608,-3.4609]},{"header":{"parameterUnit":"m.s-1","parameterCategory":1,"la1":30.2991,"la2":30.254,"lo1":-89.0895,"lo2":-89.0444,"dy":0.0017,"dx":0.0017,"nx":28,"ny":28,"refTime":"2023-05-23T21:00:00:Z","depth":0,"parameterNumber":3,"parameterNumberName":"V-component_of_WINDS"},"data":[0,0,0,0,0,0,0,0,0,0,0,0,0,0,0,0,0,0,0,0,0,0,0,0,0,0,0,0,0,0,0,0,0,0,0,0,0,0,0,0,0,0,0,0,0,0,0,0,0,0,0,0,0,0,0,0,0,0,-2.3166,-2.3166,0,-2.3198,-2.3198,-2.3199,-2.3207,-2.3207,-2.3206,-2.3206,-2.3238,-2.3239,-2.324,0,0,0,0,0,0,0,0,0,0,0,0,0,-2.3109,-2.311,-2.3165,-2.3166,-2.3166,-2.3198,-2.3198,-2.3199,-2.3207,-2.3207,-2.3206,-2.3206,-2.3238,-2.3239,-2.324,0,0,0,0,0,0,0,0,0,0,0,0,0,-2.3137,-2.3111,-2.3165,-2.3174,-2.3175,-2.3198,-2.3198,-2.3199,-2.3207,-2.3207,-2.3206,-2.3206,-2.3237,-2.3239,-2.3241,-2.3257,0,0,-2.3245,-2.3246,0,0,0,0,0,0,0,0,-2.3135,-2.3139,-2.3172,-2.3174,-2.3175,-2.3198,-2.319,-2.3218,-2.3207,-2.3195,-2.3206,-2.3206,-2.3225,-2.3228,-2.3234,-2.3258,-2.3259,-2.3246,-2.3246,-2.3247,-2.3248,0,0,0,0,0,0,0,-2.3134,-2.3138,-2.3178,-2.3173,-2.3174,-2.3176,-2.318,-2.3196,-2.3211,-2.3196,-2.3196,-2.32,-2.3226,-2.3233,-2.3235,-2.326,-2.3245,-2.3247,-2.3248,-2.3248,-2.3299,-2.33,0,0,0,0,0,0,-2.313,-2.3136,-2.3177,-2.3179,-2.3154,-2.3177,-2.3181,-2.3191,-2.3211,-2.3214,-2.3201,-2.3201,-2.323,-2.3233,-2.3236,-2.3257,-2.3247,-2.3249,-2.325,-2.3299,-2.33,-2.33,0,0,0,0,0,0,-2.3129,-2.3134,-2.3176,-2.3158,-2.3163,-2.3179,-2.3189,-2.3192,-2.3199,-2.3215,-2.3217,-2.3205,-2.323,-2.3234,-2.3252,-2.3259,-2.3249,-2.3251,-2.3299,-2.3299,-2.33,-2.3299,0,0,0,0,0,0,-2.3127,-2.3133,-2.314,-2.3158,-2.3164,-2.3191,-2.319,-2.3193,-2.3202,-2.3202,-2.322,-2.3222,-2.323,-2.3249,-2.3253,-2.3261,-2.3252,-2.3298,-2.3299,-2.33,-2.3299,-2.33,-2.3301,0,0,0,0,0,-2.3125,-2.3138,-2.314,-2.3145,-2.3173,-2.3192,-2.3195,-2.3204,-2.3202,-2.3209,-2.3219,-2.3222,-2.3257,-2.3251,-2.3256,-2.3264,-2.3298,-2.3299,-2.33,-2.3298,-2.3299,-2.33,0,0,0,0,0,0,-2.3119,-2.314,-2.3143,-2.3162,-2.3175,-2.3193,-2.3201,-2.3205,-2.3219,-2.3219,-2.3229,-2.3233,-2.325,-2.3258,-2.3251,-2.3281,-2.3277,-2.3279,-2.3275,-2.3276,-2.3277,-2.3275,-2.3253,0,0,0,0,0,-2.312,-2.3134,-2.3151,-2.3166,-2.3173,-2.3186,-2.3194,-2.32,-2.3214,-2.322,-2.3231,-2.3244,-2.3258,-2.3267,-2.3281,-2.33,-2.3304,-2.3307,-2.3308,-2.3309,-2.3311,-2.3322,-2.3324,-2.3303,-2.3303,-2.3303,0,0,-2.3122,-2.3135,-2.3143,-2.3165,-2.3176,-2.319,-2.319,-2.3205,-2.3216,-2.3222,-2.324,-2.3249,-2.3264,-2.3282,-2.3291,-2.329,-2.3317,-2.331,-2.331,-2.3312,-2.3323,-2.3325,-2.3327,-2.3304,-2.3304,-2.3303,0,0,-2.3133,-2.3144,-2.3158,-2.3169,-2.3186,-2.3195,-2.3198,-2.3216,-2.3222,-2.324,-2.3245,-2.3258,-2.3282,-2.3293,-2.3302,-2.3317,-2.3321,-2.3321,-2.3327,-2.3338,-2.3339,-2.3341,-2.3348,-2.335,-2.3323,-2.3323,-2.3323,0,-2.3133,-2.3155,-2.3164,-2.3179,-2.3189,-2.3196,-2.3211,-2.3221,-2.3241,-2.3248,-2.3246,-2.3277,-2.3287,-2.3309,-2.3313,-2.332,-2.3324,-2.332,-2.3338,-2.334,-2.3342,-2.3348,-2.3351,-2.3323,-2.3323,-2.3323,-2.3323,0,-2.3154,-2.3169,-2.3179,-2.3199,-2.321,-2.3225,-2.3237,-2.3246,-2.3252,-2.3261,-2.3279,-2.3292,-2.331,-2.3315,-2.332,-2.3338,-2.3337,-2.3336,-2.3334,-2.3344,-2.335,-2.3353,-2.3323,-2.3323,-2.3323,-2.3323,0,0,-2.3162,-2.3189,-2.3192,-2.3202,-2.3221,-2.3233,-2.3248,-2.3265,-2.3274,-2.3287,-2.3301,-2.3321,-2.3322,-2.3332,-2.3338,-2.3347,-2.336,-2.3346,-2.3347,-2.3349,-2.3382,-2.3383,-2.3386,-2.3362,-2.3363,-2.3363,-2.3381,0,-2.3176,-2.3204,-2.3214,-2.3237,-2.3251,-2.3258,-2.3272,-2.3285,-2.3294,-2.3307,-2.3317,-2.3332,-2.333,-2.3337,-2.3346,-2.3357,-2.3367,-2.3355,-2.3375,-2.3376,-2.3373,-2.3389,-2.339,-2.3406,-2.3384,-2.3384,-2.3385,0,-2.3196,-2.3212,-2.3236,-2.3255,-2.3262,-2.3273,-2.3291,-2.3303,-2.3319,-2.3324,-2.3336,-2.3342,-2.3358,-2.3353,-2.3376,-2.3368,-2.3376,-2.3383,-2.3384,-2.3387,-2.3382,-2.3394,-2.3412,-2.3415,-2.3388,-2.3388,-2.3388,0,-2.3201,-2.3227,-2.3246,-2.3254,-2.3276,-2.3284,-2.3294,-2.3309,-2.3319,-2.3334,-2.3341,-2.3357,-2.3366,-2.3378,-2.3388,-2.3384,-2.3411,-2.3407,-2.3417,-2.3416,-2.3423,-2.3422,-2.3444,-2.3426,-2.3426,-2.3426,-2.3426,0,-2.3216,-2.3231,-2.3249,-2.326,-2.3278,-2.3289,-2.3305,-2.3315,-2.3329,-2.3342,-2.3348,-2.3361,-2.3373,-2.3387,-2.3395,-2.3413,-2.3417,-2.3422,-2.3424,-2.3422,-2.3422,-2.3429,-2.3429,-2.3427,-2.3426,-2.3426,-2.3426,0,-2.3225,-2.3237,-2.3258,-2.3277,-2.3283,-2.3295,-2.3311,-2.3323,-2.3332,-2.3349,-2.3354,-2.3368,-2.3386,-2.3397,-2.3418,-2.3423,-2.3444,-2.3445,-2.3439,-2.344,-2.345,-2.3449,-2.3477,-2.3482,-2.346,-2.346,-2.3461,0,-2.3234,-2.3246,-2.3268,-2.3278,-2.3287,-2.3303,-2.3314,-2.3325,-2.3336,-2.3355,-2.3365,-2.3382,-2.3397,-2.3424,-2.3436,-2.3453,-2.3455,-2.3464,-2.3458,-2.3456,-2.3457,-2.3457,-2.3459,-2.3465,-2.3465,-2.3466,-2.3466,0,-2.325,-2.3256,-2.3272,-2.329,-2.3303,-2.3318,-2.3332,-2.334,-2.3353,-2.3365,-2.3384,-2.3395,-2.3418,-2.3436,-2.3453,-2.3463,-2.3467,-2.3467,-2.3471,-2.347,-2.3467,-2.347,-2.3443,-2.3467,-2.3467,-2.3467,-2.3467,-2.3467,-2.326,-2.3272,-2.3289,-2.3307,-2.3319,-2.3333,-2.3345,-2.3357,-2.3372,-2.3392,-2.3397,-2.3417,-2.3432,-2.3457,-2.3467,-2.3482,-2.3481,-2.3486,-2.3487,-2.3488,-2.3489,-2.3463,-2.3485,-2.3485,-2.3485,-2.3485,-2.3485,0,-2.3278,-2.3289,-2.3306,-2.3327,-2.3341,-2.3344,-2.336,-2.3372,-2.3389,-2.3403,-2.3418,-2.344,-2.3457,-2.3471,-2.3489,-2.3499,-2.3501,-2.3503,-2.3503,-2.3506,-2.3488,-2.3484,-2.3501,-2.3501,-2.3501,-2.3501,-2.3501,-2.3501,-2.3289,-2.3309,-2.3317,-2.3344,-2.3355,-2.3375,-2.3384,-2.3397,-2.3409,-2.3433,-2.3448,-2.3457,-2.3472,-2.3491,-2.3507,-2.3511,-2.3518,-2.352,-2.3524,-2.3508,-2.3507,-2.3505,-2.3501,-2.3521,-2.3521,-2.354,-2.354,-2.3541]}]]